Regional Weather Roundup
Issued by NWS Portland, ME

Home | Current Version | Previous Version | Text Only | Print | Product List | Glossary On
Versions: 1 2 3 4 5 6 7 8 9 10 11 12 13 14 15 16 17 18 19 20 21 22 23 24 25 26 27 28 29 30 31 32 33 34 35 36 37 38 39 40 41 42 43 44 45 46 47 48 49 50
344
ASUS41 KGYX 230910
RWRGYX
WEATHER ROUNDUP FOR MAINE AND NEW HAMPSHIRE
NATIONAL WEATHER SERVICE GRAY ME
400 AM EST THU FEB 23 2017

MEZ002-005-006-010-012-015-018-020-021-024-026-027-029-231000-
MAINE

CITY           SKY/WX    TMP DP  RH WIND       PRES   REMARKS
PORTLAND       PTCLDY    29  26  89 CALM      29.86F
SANFORD        CLEAR     25  23  92 CALM      29.85F
BAR HARBOR     FOG       25  25 100 CALM      29.88F VSB 3/4
WISCASSET      CLEAR     25  22  88 CALM      29.87F
ROCKLAND       FOG       24  23  96 CALM      29.87F VSB 1/4
FRYEBURG       CLEAR     23  21  92 CALM      29.85F
LEWISTONAUBURN CLEAR     25  23  92 CALM      29.85F
AUGUSTA        CLEAR     30  27  88 SW3       29.85F
WATERVILLE     CLEAR     27  25  92 SW5       29.82F
BANGOR         CLEAR     25  24  96 CALM      29.85F
GREENVILLE       N/A     33  29  85 SE5       29.77F
MILLINOCKET    CLEAR     20  17  88 CALM      29.84F
HOULTON        CLEAR     28  25  88 S5        29.82F
PRESQUE ISLE   CLOUDY    19  17  92 CALM      29.81F
FRENCHVILLE    CLOUDY    27  24  89 SE8       29.76F
CARIBOU        CLOUDY    24  21  88 CALM      29.79F
$$

NHZ002-005-008-009-011-012-014-231000-
NEW HAMPSHIRE

CITY           SKY/WX    TMP DP  RH WIND       PRES   REMARKS
PORTSMOUTH     PTCLDY    30  28  93 CALM      29.85R
ROCHESTER      PTCLDY    32  27  81 NW5       29.85S
NASHUA         CLOUDY    34  32  92 CALM      29.86F
MANCHESTER     MOCLDY    35  30  82 CALM      29.84F
CONCORD        PTCLDY    31  27  85 CALM      29.85F
LACONIA        CLEAR     28  27  96 MISG      29.85S
PLYMOUTH       FAIR      26  25  98 CALM      29.86S
BERLIN         PTCLDY    22  19  89 CALM      29.82S
WHITEFIELD     PTCLDY    24  21  88 NW3       29.82S
JAFFREY        PTCLDY    32  30  92 CALM      29.84F
KEENE          CLOUDY    31  30  96 NE3       29.86F
LEBANON        CLEAR     30  28  92 CALM      29.84S
MT WASHINGTON  FOG       34  34 100 W38         N/A  VSB 0   WCI  19
$$

VTZ005-007-008-231000-
VERMONT

CITY           SKY/WX    TMP DP  RH WIND       PRES   REMARKS
ST JOHNSBURY     N/A     28  28 100 MISG      29.82S
MONTPELIER     CLEAR     30  29  96 CALM      29.83F
BURLINGTON     MOCLDY    47  36  65 S6        29.78S
$$

MAZ007-012-024-CTZ003-RIZ002-NYZ038-NYZ072-231000-
SOUTHERN NEW ENGLAND AND NY

CITY           SKY/WX    TMP DP  RH WIND       PRES   REMARKS
BOSTON         MOCLDY    41  37  86 CALM      29.87S
WORCESTER      CLOUDY    42  35  76 W10       29.84F
NANTUCKET      FOG       43  41  93 SW7       29.91R VSB 3/4
PROVIDENCE     PTCLDY    37  35  92 CALM      29.88F
HARTFORD       CLOUDY    38  35  89 CALM      29.87S
ALBANY         CLOUDY    46  37  71 S5        29.84S
NEW YORK CITY  PTCLDY    43  38  82 NE6       29.88S
$$

ANZ081-ANZ082-ANZ150-NHZ014-MEZ023>029-231000-
COASTAL MARINE OBSERVATIONS

STATION/POSITION TIME  TEMP    WIND        PRES    WAVE
                       AIR SEA DIR/SP/G            HT/PER
                 (UTC) (F)     (DEG/KT/KT) (MB)    (FT/S)
MOUNT DESERT ROC 0900   40                 1012.2F
MATINICUS ROCK   0900   40     140/  8/  9 1011.0F
ISLE OF SHOALS   0900   39      40/  2/  3 1010.8F
JEFFREYS LEDGE   0836      43                N/A     3/ 8
CASHES LEDGE BUO 0850   41 42              1011.8F   3/11
GEORGES BANK BUO 0850   44 44              1013.7R   4/12
$$

.............KEY..............
   WCI - WIND CHILL
   TC  - TEMPERATURE IN CELSIUS
   VSB - VISIBILITY IN MILES
   HX  - HEAT INDEX
   FAIR- INDICATES FEW OR NO CLOUDS BELOW 12,000 FT, WITH NO
         SIGNIFICANT WEATHER AND/OR OBSTRUCTIONS TO VISIBILITY.






USA.gov is the U.S. government's official web portal to all federal, state and local government web resources and services.